Flag for U.S.A. Weather past 2 weeks in Detroit, Michigan, U.S.A.

Now
14 °F

Clear.


Feels Like: 5 °F
Forecast: 9 / 24 °F
Wind: 6 mph from Northeast

Location: Detroit City Airport

Current Time: Jan 27, 2015 at 5:56:47 AM

Latest Report: Jan 27, 2015 at 4:53 AM


Visibility: 10 mi

Pressure: 30.03 "Hg

Humidity: 73%

Dew point: 7 °F

Location of DetroitLocation

Historic Weather in Detroit — Graph

°F

Detroit temperature yesterday

Maximum temperature yesterday: 28 °F (at 3:53 PM)
Minimum temperature yesterday: 11 °F (at 6:53 AM)
Average temperature yesterday: 19 °F

Past Weeks' High & Low Weather Summary

 TemperatureHumidityPressure
High44 °F (Jan 17, 11:53 PM)86% (Jan 18, 10:53 AM)30.79 "Hg (Jan 18, 10:53 AM)
Low4 °F (Jan 13, 9:53 PM)45% (Jan 26, 3:53 PM)28.53 "Hg (Jan 13, 2:53 AM)
Average25 °F69%30.10 "Hg
* Reported Jan 12 5:00 AM — Jan 27 4:53 AM, Detroit, Weather by CustomWeather, © 2014

Note: Actual official high and low records may vary slightly from our data, if they occured in-between our weather recording intervals... More about our weather records

Advertising

Detroit weather history for previous 24 hours

 ConditionsComfort  
Time TempWeatherWind HumidityBarometerVisibility
4:53 AM
Jan 27
14 °FClear.6 mph73%30.03 "Hg10 mi
3:53 AM15 °FClear.7 mph74%30.02 "Hg10 mi
2:53 AM15 °FClear.3 mph70%30.02 "Hg10 mi
1:53 AM16 °FClear.3 mph74%30.01 "Hg10 mi
12:53 AM18 °FClear.5 mph71%30.01 "Hg10 mi
11:53 PM
Jan 26
19 °FPassing clouds.6 mph71%30.71 "Hg10 mi
10:53 PM19 °FOvercast.3 mph71%30.72 "Hg10 mi
9:53 PM19 °FOvercast.5 mph68%30.01 "Hg10 mi
8:53 PM18 °FClear.6 mph71%30.01 "Hg10 mi
7:53 PM20 °FClear.7 mph65%30.00 "Hg10 mi
6:53 PM19 °FClear.5 mph68%29.98 "Hg10 mi
5:53 PM21 °FClear.7 mph62%29.97 "Hg10 mi
4:53 PM24 °FSunny.10 mph55%29.94 "Hg10 mi
3:53 PM28 °FSunny.9 mph45%29.93 "Hg10 mi
2:53 PM27 °FSunny.9 mph49%29.92 "Hg10 mi
1:53 PM26 °FSunny.8 mph48%29.93 "Hg10 mi
12:53 PM25 °FSunny.8 mph48%29.95 "Hg10 mi
11:53 AM21 °FSunny.9 mph55%30.68 "Hg10 mi
10:53 AM20 °FSunny.8 mph60%29.99 "Hg10 mi
9:53 AM18 °FSunny.10 mph62%29.99 "Hg10 mi
8:53 AM15 °FSunny.8 mph67%29.98 "Hg10 mi
7:53 AM12 °FSunny.7 mph70%29.97 "Hg10 mi
6:53 AM11 °FClear.8 mph70%29.96 "Hg10 mi
5:53 AM13 °FClear.7 mph64%29.96 "Hg10 mi
Weather by CustomWeather, © 2014

See weather overviewHow to use our weather pages